Date,TemperatureHighF,TemperatureAvgF,TemperatureLowF,DewpointHighF,DewpointAvgF,DewpointLowF,HumidityHigh,HumidityAvg,HumidityLow,PressureMaxIn,PressureMinIn,WindSpeedMaxMPH,WindSpeedAvgMPH,GustSpeedMaxMPH,PrecipitationSumIn
2013-1-1,43.5,35.7,30.6,39.0,31.5,26.9,86,84,83,29.56,29.56,8,8,8,0.00
2013-1-2,46.6,37.8,33.1,39.4,31.7,27.3,85,79,66,29.56,29.56,8,8,0,0.00
2013-1-3,43.7,37.6,31.3,36.1,31.7,26.4,84,79,64,29.56,29.56,8,8,8,0.20
2013-1-4,50.0,45.9,41.2,44.5,40.9,36.1,85,82,78,29.56,29.56,8,8,8,0.16
2013-1-5,48.6,43.6,-4.4,40.6,37.6,-8.7,83,79,64,29.56,29.56,14,8,14,0.20
2013-1-6,45.1,43.1,39.9,40.6,38.6,35.2,85,84,83,29.56,29.56,8,8,8,0.51
2013-1-7,79.5,46.7,41.2,44.4,41.7,36.1,85,83,78,29.56,29.56,13,8,13,0.94
2013-1-8,50.0,45.0,41.0,45.7,40.4,36.2,86,84,83,29.56,29.56,19,8,18,1.46
2013-1-9,45.1,40.8,36.1,40.9,34.2,28.0,85,77,58,29.56,29.56,13,8,13,0.20
2013-1-10,44.4,35.0,29.8,39.6,30.5,25.6,85,83,80,29.56,29.56,8,8,0,0.04
2013-1-11,38.3,31.7,27.5,31.6,23.5,15.3,85,73,43,29.56,29.56,8,8,8,0.00
2013-1-12,36.9,30.5,28.0,29.1,24.6,22.4,83,79,64,29.56,29.56,8,8,8,0.00
2013-1-13,37.0,35.2,34.3,29.6,28.5,26.8,81,77,69,29.56,29.56,8,8,0,0.00
2013-1-14,42.8,36.0,32.2,36.7,30.8,28.0,86,81,78,29.56,29.56,8,8,0,0.04
2013-1-15,43.9,33.2,28.8,38.8,28.9,24.8,86,84,78,29.56,29.56,8,8,116,0.00
2013-1-16,42.1,33.5,28.9,37.1,29.1,25.1,86,84,78,29.56,29.56,8,8,8,0.00
2013-1-17,44.4,33.1,27.7,39.7,28.9,23.8,86,84,81,29.56,29.56,8,8,8,0.00
2013-1-18,45.1,34.8,29.1,40.0,30.5,25.2,86,84,80,29.56,29.56,8,8,8,0.00
2013-1-19,48.0,35.3,28.4,43.2,29.6,24.7,87,80,54,29.56,29.56,8,8,8,0.00
2013-1-20,45.5,33.8,28.2,40.8,29.3,24.3,86,84,76,29.56,29.56,8,8,8,0.04
2013-1-21,45.5,33.2,28.2,40.9,29.2,24.3,87,85,80,29.56,29.56,8,8,10,0.00
2013-1-22,46.9,38.0,29.8,38.7,29.6,25.7,85,73,49,29.56,29.56,8,8,8,0.00
2013-1-23,46.4,45.7,44.6,41.5,41.0,39.8,84,83,83,29.56,29.56,10,8,10,0.63
2013-1-27,42.8,42.8,42.8,34.4,34.2,33.5,72,71,70,29.56,29.56,8,8,8,0.63
2013-1-28,67.8,44.0,42.6,67.8,37.2,32.2,100,77,65,29.56,29.56,13,8,13,0.24
2013-1-29,47.7,46.1,31.5,41.9,41.4,26.9,85,83,80,31.01,29.56,15,8,15,0.00
2013-1-30,49.1,48.0,47.7,43.5,42.7,42.4,83,82,80,29.56,29.56,8,8,8,0.12
2013-1-31,51.4,47.5,45.0,45.6,42.1,39.8,84,82,78,29.56,29.56,8,8,8,0.16
2013-2-1,52.0,43.5,36.1,43.4,37.1,31.8,84,78,60,29.56,29.56,8,8,8,0.00
2013-2-2,52.0,40.1,32.9,46.8,34.9,29.5,87,82,70,29.56,29.29,8,8,0,0.04
2013-2-3,40.8,40.8,40.8,34.8,34.8,34.8,79,79,79,29.29,29.29,8,8,0,0.00
2013-2-4,40.8,40.8,40.8,34.8,34.8,34.8,79,79,79,29.29,29.29,8,8,0,0.00
2013-2-5,40.8,40.8,40.8,34.8,34.8,34.8,79,79,79,29.29,29.29,8,8,0,0.00
2013-2-6,40.8,40.8,40.8,34.8,34.8,34.8,79,79,79,29.29,29.29,8,8,0,0.00
2013-2-7,40.8,40.8,40.8,34.8,34.8,34.8,79,79,79,29.29,29.29,8,8,0,0.00
2013-2-8,47.1,40.4,13.5,39.4,33.1,0.7,82,75,56,29.56,29.20,8,8,8,0.00
2013-2-9,49.3,43.4,32.0,41.8,31.7,-47.5,83,74,2,29.24,28.23,8,8,8,0.00
2013-2-10,50.5,41.0,32.9,44.6,35.6,28.9,86,81,75,29.26,28.29,8,8,0,0.00
2013-2-11,50.7,46.0,42.8,43.4,40.3,37.4,83,80,76,29.26,28.26,8,8,0,0.20
2013-2-12,49.6,46.6,44.4,43.9,41.5,39.3,84,82,79,29.29,29.18,8,8,8,0.31
2013-2-13,47.5,44.5,32.0,42.3,37.8,-40.6,84,80,3,29.35,29.20,8,8,8,0.04
2013-2-14,43.5,41.9,32.0,38.1,27.9,-40.6,81,71,3,29.32,29.29,8,8,0,0.00
2013-2-20,41.7,40.9,37.4,36.9,35.8,32.4,83,82,78,29.56,28.67,8,8,0,0.00
2013-2-21,41.7,40.3,37.4,37.2,35.5,32.4,84,83,82,28.67,25.78,8,8,8,0.31
2013-2-22,48.7,42.4,32.0,42.7,28.9,-47.5,95,66,2,29.56,20.35,11,8,11,0.43
2013-2-23,50.0,43.6,32.0,35.3,30.5,-40.6,80,61,41,29.56,20.38,11,8,11,0.04
2013-2-24,47.3,41.3,32.0,42.1,34.8,-40.6,85,80,3,29.56,29.56,8,8,8,0.83
2013-2-25,48.6,44.2,31.8,40.9,30.3,26.4,85,60,42,29.56,29.56,11,8,11,0.51
2013-2-26,44.8,40.6,32.0,37.7,29.3,-40.6,85,72,3,29.97,29.56,8,8,8,0.35
2013-2-27,47.8,40.8,32.0,39.6,29.1,-40.6,84,73,3,29.97,29.56,8,8,8,0.08
2013-2-28,49.8,46.7,32.0,44.8,38.5,-40.6,85,78,3,29.94,29.80,8,8,8,1.14
2013-3-1,49.8,48.1,32.0,45.5,39.1,-40.6,85,79,3,30.00,29.91,8,8,8,1.42
2013-3-2,104.4,44.9,-40.4,93.1,36.4,-52.0,84,76,4,29.94,29.80,8,8,9,0.94
2013-3-3,50.5,37.3,-40.4,38.4,25.5,-52.0,82,63,47,29.97,29.91,9,8,9,0.00
2013-3-4,50.4,40.4,32.0,33.6,26.7,-40.6,85,62,3,29.94,29.53,8,8,8,0.00
2013-3-5,47.3,41.1,-40.4,38.4,24.8,-51.7,80,63,3,29.56,29.41,8,8,8,0.31
2013-3-6,104.4,44.8,-40.4,90.2,35.5,-51.7,82,71,49,29.56,29.29,8,8,8,0.04
2013-3-7,49.8,45.6,32.0,40.7,33.8,-47.5,82,70,2,29.77,29.56,8,8,0,0.04
2013-3-8,49.8,49.8,49.8,39.3,39.3,39.3,67,67,67,29.77,29.77,8,8,0,0.00
2013-3-9,49.8,49.8,49.8,39.3,39.3,39.3,67,67,67,29.77,29.77,8,8,0,0.00
2013-3-10,49.8,49.8,49.8,39.3,39.3,39.3,67,67,67,29.77,29.77,8,8,0,0.00
2013-3-11,49.8,49.8,49.8,39.3,39.3,39.3,67,67,67,29.77,29.77,8,8,0,0.00
2013-3-12,49.8,49.8,49.8,39.3,39.3,39.3,67,67,67,29.77,29.77,8,8,0,0.00
2013-3-13,50.7,49.8,44.4,45.5,43.2,27.4,85,79,51,29.83,29.56,8,8,8,0.55
2013-3-14,50.2,47.8,32.0,45.0,37.8,-40.6,84,77,3,29.83,29.56,8,8,8,0.39
2013-3-15,52.0,49.2,47.5,45.1,43.5,42.4,84,81,75,29.88,29.83,8,8,8,0.16
2013-3-16,48.7,43.9,32.0,42.9,28.1,-58.7,83,65,1,29.85,29.68,11,8,9,0.28
2013-3-17,48.7,38.7,13.5,32.8,26.1,-3.1,96,62,39,29.94,29.74,19,8,19,0.04
2013-3-18,51.3,35.8,-40.4,32.1,19.0,-53.3,84,53,4,29.97,29.83,10,8,10,0.28
2013-3-19,49.6,42.0,32.0,40.7,31.4,-40.6,85,68,41,29.91,29.15,8,8,8,0.20
2013-3-20,49.3,43.7,-76.9,99.9,35.5,-7.8,85,72,46,29.71,28.97,10,8,10,0.83
2013-3-21,48.6,41.2,32.0,34.7,25.0,-35.6,76,56,4,29.94,29.71,8,8,11,0.04
2013-3-22,46.4,41.3,32.0,27.4,21.3,-47.5,77,46,2,30.09,29.91,9,8,9,0.00
2013-3-23,48.9,41.3,33.8,33.5,29.0,24.8,80,64,39,30.06,29.97,8,8,8,0.00
2013-3-24,54.0,33.0,-40.4,36.6,19.1,-64.1,75,58,23,29.97,29.80,8,8,8,0.00
2013-3-25,60.6,46.0,30.9,35.1,13.5,-40.6,69,36,3,29.80,29.65,8,8,8,0.00
2013-3-26,56.7,48.8,32.0,40.7,30.8,-47.5,79,57,2,29.77,29.65,8,8,8,0.00
2013-3-27,56.7,50.3,45.0,46.2,42.5,39.2,81,75,65,29.74,29.62,8,8,8,0.04
2013-3-28,104.4,54.6,32.0,93.1,40.9,-58.7,83,66,1,29.88,29.71,8,8,8,0.00
2013-3-29,104.4,50.7,32.0,93.5,41.2,-58.7,82,72,1,30.00,29.85,8,8,8,0.00
2013-3-30,69.6,49.3,-40.4,46.9,32.5,-56.8,85,58,5,29.97,29.77,8,8,8,0.00
2013-3-31,53.4,48.3,44.1,40.7,34.0,26.8,74,59,36,29.77,29.71,8,8,8,0.00
2013-4-5,49.5,49.5,49.5,44.8,44.8,44.8,84,84,84,29.44,29.44,8,8,0,0.00
2013-4-6,49.5,49.5,49.5,44.8,44.8,44.8,84,84,84,29.44,29.44,8,8,0,0.00
2013-4-7,49.5,49.5,49.5,44.8,44.8,44.8,84,84,84,29.44,29.44,8,8,0,0.00
2013-4-8,49.5,49.5,49.5,44.8,44.8,44.8,84,84,84,29.44,29.44,8,8,0,0.00
2013-4-9,49.5,49.5,49.5,44.8,44.8,44.8,84,84,84,29.44,29.44,8,8,0,0.00
2013-4-10,49.5,49.5,49.5,44.8,44.8,44.8,84,84,84,29.44,29.44,8,8,0,0.00
2013-4-11,49.5,49.5,49.5,44.8,44.8,44.8,84,84,84,29.44,29.44,8,8,0,0.00
2013-4-13,55.9,49.1,45.3,38.9,35.1,32.7,66,59,47,29.74,29.59,11,8,11,0.00
2013-4-14,52.7,46.9,32.0,40.6,33.6,-47.5,79,62,2,29.71,29.56,8,8,8,0.04
2013-4-15,54.1,43.9,36.3,42.4,33.3,30.7,85,68,45,29.91,29.65,9,8,9,0.00
2013-4-16,62.2,45.9,32.4,37.8,28.9,-35.6,86,57,25,30.12,29.88,9,8,9,0.00
2013-4-17,54.5,46.3,38.8,38.7,34.1,29.7,78,64,40,30.21,30.09,13,8,9,0.12
2013-4-18,52.9,47.3,32.0,45.8,38.1,-40.6,83,76,3,30.15,29.85,8,8,8,0.91
2013-4-19,53.4,50.2,30.9,46.7,43.7,-14.3,84,79,13,29.91,29.71,8,8,8,0.98
2013-4-20,53.6,46.2,32.0,45.2,26.6,-58.7,82,64,1,30.03,29.88,8,8,8,0.20
2013-4-21,46.9,46.9,46.9,40.4,40.4,40.4,78,78,78,29.97,29.97,8,8,0,0.00
2013-4-23,61.0,47.8,34.2,41.1,35.7,29.8,84,66,41,30.09,30.03,8,8,8,0.00
2013-4-24,65.5,58.6,45.9,39.5,32.3,25.5,78,41,23,29.97,29.83,8,8,8,0.00
2013-4-25,60.3,51.4,43.5,43.9,40.0,38.1,82,66,46,29.91,29.71,9,8,9,0.00
2013-4-26,62.4,51.2,32.0,40.5,30.0,-58.7,75,54,1,30.03,29.91,8,8,8,0.00
2013-4-27,54.1,49.2,32.0,47.1,36.6,-47.5,82,71,2,29.94,29.83,8,8,8,0.39
2013-4-28,58.8,48.9,32.0,44.1,30.5,-58.7,83,60,1,29.91,29.65,8,8,8,0.87
2013-4-29,54.9,47.0,32.0,41.1,28.4,-47.5,83,52,2,29.94,29.68,13,8,13,0.04
2013-4-30,56.1,43.3,13.5,31.2,18.7,-40.6,83,43,3,30.15,29.88,12,8,12,0.00
2013-5-1,58.5,44.3,31.8,42.7,31.9,27.4,86,65,37,30.33,30.12,9,8,9,0.00
2013-5-2,62.4,47.7,32.0,46.8,31.6,11.8,85,60,14,30.24,30.12,8,8,9,0.00
2013-5-3,70.3,55.0,32.0,43.5,35.3,-35.6,84,53,4,30.12,29.97,13,8,13,0.00
2013-5-4,84.0,50.0,32.0,42.9,14.7,-35.6,85,39,4,29.97,29.77,11,8,11,0.00
2013-5-5,91.4,77.5,55.2,44.1,29.2,16.5,66,21,8,29.65,29.53,8,8,8,0.00
2013-5-6,63.5,53.5,44.4,47.8,42.7,27.4,81,68,45,29.59,29.47,8,8,8,0.00
2013-5-7,64.2,53.9,32.0,46.2,38.0,-40.6,81,62,3,29.71,29.53,8,8,8,0.00
2013-5-8,63.7,52.1,32.0,46.0,29.1,-47.5,85,53,2,29.94,29.71,8,8,8,0.00
2013-5-9,59.5,51.1,32.0,42.9,29.5,-58.7,95,54,1,29.97,29.88,9,8,9,0.00
2013-5-10,63.9,45.3,-4.2,43.5,12.6,-58.7,83,43,1,29.94,29.56,8,8,8,0.00
2013-5-11,63.5,53.4,32.0,51.4,40.1,-47.5,79,67,2,29.91,29.77,8,8,8,0.63
2013-5-12,63.1,57.2,32.0,53.4,47.9,-40.6,82,75,3,29.85,29.74,8,8,8,0.59
2013-5-13,56.8,50.6,33.1,50.4,39.6,5.7,82,68,31,29.91,29.65,8,8,8,0.67
2013-5-14,62.4,53.4,32.0,47.3,38.2,-40.6,82,62,3,29.97,29.83,8,8,8,0.00
2013-5-15,63.3,51.7,32.0,47.4,33.7,-35.6,77,60,4,29.83,29.71,8,8,8,0.04
2013-5-16,66.7,56.6,32.0,52.7,40.3,-47.5,80,62,3,29.71,29.65,8,8,8,0.12
2013-5-17,64.6,55.4,32.0,49.4,39.4,-47.5,79,63,2,29.77,29.62,8,8,8,0.04
2013-5-18,61.7,55.1,32.0,47.2,43.6,-35.6,80,68,4,30.03,29.77,8,8,8,0.24
2013-5-19,61.0,56.1,32.0,45.7,40.2,-58.7,74,58,2,30.21,30.03,8,8,8,0.00
2013-5-20,59.0,50.0,32.0,45.7,33.2,-40.6,82,61,3,30.09,29.68,8,8,8,0.28
2013-5-21,85.6,52.5,32.0,44.3,38.4,-58.7,80,63,1,29.68,29.50,11,8,11,0.24
2013-5-22,64.0,47.9,32.0,47.4,24.2,-58.7,80,53,1,29.68,29.56,8,8,8,0.20
2013-5-23,59.4,49.1,32.0,47.9,30.4,-47.5,80,60,2,29.74,29.65,8,8,8,0.59
2013-5-24,64.4,49.6,32.0,45.2,29.1,-47.5,81,56,2,29.80,29.56,8,8,8,0.04
2013-5-25,61.9,52.0,32.0,48.6,39.6,-40.6,82,68,3,29.80,29.68,8,8,0,0.12
2013-5-26,64.2,53.8,32.0,51.1,37.8,-47.5,95,64,2,29.74,29.65,8,8,9,0.04
2013-5-27,59.4,52.9,32.0,51.3,39.9,-47.5,81,70,2,29.68,29.35,8,8,8,0.55
2013-5-28,55.9,53.1,32.0,48.8,45.3,-47.5,82,77,4,29.62,29.44,8,8,8,0.59
2013-5-29,61.0,54.4,49.3,47.4,44.0,40.9,82,69,48,29.68,29.41,8,8,8,0.24
2013-5-30,61.3,54.3,48.4,48.1,44.7,40.8,81,71,49,29.94,29.68,8,8,8,0.24
2013-5-31,63.1,57.1,32.0,48.8,43.5,27.7,84,63,48,30.06,29.94,8,8,8,0.35
2013-6-1,63.1,63.1,63.1,43.1,43.1,43.1,48,48,48,30.06,30.06,8,8,0,0.00
2013-6-2,63.1,63.1,63.1,43.1,43.1,43.1,48,48,48,30.06,30.06,8,8,0,0.00
2013-6-3,63.1,63.1,63.1,43.1,43.1,43.1,48,48,48,30.06,30.06,8,8,0,0.00
2013-6-4,63.1,63.1,63.1,43.1,43.1,43.1,48,48,48,30.06,30.06,8,8,0,0.00
2013-6-5,63.1,63.1,63.1,43.1,43.1,43.1,48,48,48,30.06,30.06,8,8,0,0.00
2013-6-6,63.1,63.1,63.1,43.1,43.1,43.1,48,48,48,30.06,30.06,8,8,0,0.00
2013-6-7,63.1,63.1,63.1,43.1,43.1,43.1,48,48,48,30.06,30.06,8,8,0,0.00
2013-6-8,63.1,63.1,63.1,43.1,43.1,43.1,48,48,48,30.06,30.06,8,8,0,0.00
2013-6-9,63.1,63.1,63.1,43.1,43.1,43.1,48,48,48,30.06,30.06,8,8,0,0.00
2013-6-10,63.1,63.1,63.1,43.1,43.1,43.1,48,48,48,30.06,30.06,8,8,0,0.00
2013-6-11,63.1,63.1,63.1,43.1,43.1,43.1,48,48,48,30.06,30.06,8,8,0,0.00
2013-6-12,63.1,63.1,63.1,43.1,43.1,43.1,48,48,48,30.06,30.06,8,8,0,0.00
2013-6-24,65.8,54.3,32.0,50.5,27.8,-40.6,71,49,3,29.44,29.38,8,8,8,0.00
2013-6-25,66.6,57.9,32.0,52.5,40.7,-40.6,79,61,3,29.56,29.35,8,8,8,0.16
2013-6-26,79.7,59.5,32.0,65.1,42.0,-40.6,80,62,3,29.80,29.53,8,8,8,0.28
2013-6-27,66.6,59.6,32.0,57.7,44.7,-40.6,79,68,3,29.97,29.56,8,8,8,0.39
2013-6-28,75.2,65.4,33.1,61.3,54.6,17.8,81,70,45,29.97,29.85,8,8,8,0.00
2013-6-29,74.5,64.9,32.0,57.4,52.4,27.4,83,66,41,29.91,29.77,8,8,8,0.00
2013-6-30,74.5,58.2,13.5,57.0,42.4,-58.7,95,64,1,29.83,29.68,8,8,8,0.00
2013-7-1,66.6,56.7,13.5,55.3,34.6,-58.7,83,60,1,29.85,29.71,8,8,8,0.00
2013-7-2,64.8,59.3,32.0,53.0,51.1,-47.5,79,76,2,29.91,29.85,8,8,8,0.00
2013-7-7,68.5,62.1,30.9,50.0,43.3,-10.5,74,52,15,29.74,29.71,8,8,8,0.00
2013-7-8,68.7,59.3,32.0,50.0,37.5,-40.6,75,53,3,29.94,29.56,8,8,8,0.00
2013-7-11,64.9,64.6,64.4,42.6,41.3,38.7,45,43,38,29.85,29.56,8,8,0,0.00
2013-7-12,68.2,59.9,33.1,49.3,41.6,8.4,80,53,33,29.88,29.74,8,8,8,0.00
2013-7-13,66.6,58.7,32.0,51.1,44.3,-47.5,80,62,2,30.00,29.85,9,8,9,0.00
2013-7-14,66.7,56.8,32.0,49.7,41.2,-35.6,84,61,4,29.88,29.80,8,8,8,0.00
2013-7-15,81.0,61.1,32.0,50.5,33.6,-35.6,85,47,4,29.83,29.65,13,8,13,0.00
2013-7-16,86.0,64.2,32.0,44.8,30.6,-35.6,80,39,4,29.65,29.53,8,8,8,0.00
2013-7-18,68.0,61.0,32.0,53.2,39.4,-47.5,85,50,2,30.00,29.91,8,8,8,0.00
2013-7-19,62.6,55.7,32.0,50.6,39.5,-58.7,77,65,1,29.94,29.88,8,8,8,0.00
2013-7-20,61.9,58.1,32.0,52.1,49.3,-47.5,80,73,2,29.85,29.56,8,8,8,0.00
2013-7-21,65.8,58.6,32.0,52.3,47.6,-35.6,82,70,4,29.77,29.71,8,8,8,0.00
2013-7-22,64.9,51.7,32.0,51.8,25.4,-47.5,81,53,2,29.85,29.71,8,8,8,0.04
2013-7-23,66.0,54.8,32.0,50.6,33.4,-58.7,80,61,1,29.85,29.77,8,8,8,0.00
2013-7-24,65.1,56.8,32.0,51.1,42.3,-58.7,81,67,1,29.88,29.74,8,8,8,0.00
2013-7-25,69.1,59.3,13.5,52.3,45.1,-47.5,81,63,2,29.94,29.80,10,8,10,0.00
2013-7-26,58.1,48.9,33.1,50.4,42.9,18.2,84,80,54,29.88,29.56,8,8,8,0.00
2013-7-27,69.6,59.2,32.0,49.7,42.9,-35.6,81,60,4,29.88,29.77,9,8,9,0.00
2013-8-1,71.8,58.4,30.9,50.4,39.9,-5.5,96,53,20,29.85,29.80,8,8,8,0.00
2013-8-2,65.7,55.5,32.0,53.4,34.8,-47.5,81,60,2,29.88,29.77,8,8,8,0.00
2013-8-3,67.1,59.0,13.5,53.2,47.1,-58.7,80,66,1,29.91,29.83,8,8,8,0.00
2013-8-4,68.5,54.2,32.0,52.5,25.9,-58.7,84,52,1,29.83,29.74,12,8,12,0.00
2013-8-5,67.6,57.2,32.0,49.9,42.9,-58.7,80,65,1,29.83,29.71,8,8,8,0.00
2013-8-6,67.3,59.1,54.1,50.5,47.9,45.4,81,68,47,29.83,29.68,8,8,8,0.00
2013-8-7,68.7,56.4,32.0,52.5,37.9,-58.7,80,61,1,29.85,29.68,8,8,8,0.00
2013-8-8,66.7,57.2,30.9,53.0,38.7,-58.7,81,61,1,29.85,29.74,13,8,13,0.00
2013-8-9,68.5,60.8,30.9,53.6,48.0,-2.6,80,65,23,29.74,29.65,8,8,8,0.00
2013-8-10,66.7,62.6,44.4,53.0,50.9,27.4,77,66,51,29.83,29.68,8,8,8,0.00
2013-8-11,59.7,59.7,59.7,52.5,52.5,52.5,77,77,77,29.83,29.83,8,8,0,0.00
2013-8-12,59.7,59.7,59.7,52.5,52.5,52.5,77,77,77,29.83,29.83,8,8,0,0.00
2013-8-13,59.7,59.7,59.7,52.5,52.5,52.5,77,77,77,29.83,29.83,8,8,0,0.00
2013-8-14,59.7,59.7,59.7,52.5,52.5,52.5,77,77,77,29.83,29.83,8,8,0,0.00
2013-8-17,72.0,60.1,32.0,58.4,40.3,-58.7,81,56,1,29.91,29.56,8,8,8,0.00
2013-8-18,59.5,58.7,44.4,53.7,52.4,27.4,81,79,51,29.85,29.77,8,8,0,0.00
2013-8-25,51.6,51.6,51.6,45.7,45.7,45.7,80,80,80,29.62,29.59,8,8,0,0.00
2013-8-26,66.9,52.7,32.0,53.3,42.4,-47.5,84,73,2,29.62,29.53,8,8,8,0.00
2013-8-30,62.6,54.3,32.0,56.9,27.8,-58.7,82,60,1,29.80,29.74,8,8,0,0.00
2013-8-31,63.9,63.9,63.9,54.3,54.3,54.3,71,71,71,29.68,29.68,8,8,0,0.00
2013-9-1,63.9,63.9,63.9,54.3,54.3,54.3,71,71,71,29.68,29.68,8,8,0,0.00
2013-9-2,63.9,63.9,63.9,54.3,54.3,54.3,71,71,71,29.68,29.68,8,8,0,0.00
2013-9-3,72.0,65.7,32.0,60.7,50.6,-47.5,82,61,2,29.83,29.68,8,8,8,0.00
2013-9-4,71.4,60.5,51.6,56.5,51.0,46.8,84,73,48,29.85,29.68,8,8,8,0.00
2013-9-5,57.4,57.4,57.4,51.3,51.3,51.3,80,80,80,29.80,29.80,8,8,0,0.00
2013-9-8,67.1,62.1,32.0,56.7,50.5,-58.7,81,71,1,29.88,29.80,8,8,8,0.00
2013-9-9,99.3,60.6,32.0,57.2,45.7,-58.7,81,69,1,29.85,29.74,8,8,8,0.00
2013-9-10,81.5,53.6,32.0,51.4,34.6,-40.6,82,64,3,29.74,29.68,8,8,8,0.00
2013-9-11,71.6,71.6,71.6,52.0,52.0,52.0,50,50,50,29.71,29.71,8,8,0,0.00
2013-9-12,71.6,63.9,32.0,55.8,49.8,-47.5,79,65,2,29.77,29.71,8,8,0,0.00
2013-9-13,66.9,62.4,32.0,57.1,53.0,-58.7,80,73,1,29.74,29.65,8,8,0,0.00
2013-9-14,65.5,54.7,32.0,54.5,30.3,-58.7,80,58,1,29.65,29.50,8,8,8,0.00
2013-9-15,68.9,57.0,32.0,62.1,37.4,-58.7,81,66,1,29.59,29.44,8,8,8,0.55
2013-9-16,60.6,60.3,60.1,54.8,54.4,54.2,81,81,81,29.68,29.56,8,8,0,0.20
2013-9-17,64.9,59.5,32.0,49.7,44.1,-58.7,76,62,1,29.68,29.56,8,8,8,0.20
2013-9-18,67.1,60.6,31.8,54.9,48.2,14.8,83,66,43,29.83,29.56,8,8,8,0.20
2013-9-19,72.3,55.6,32.0,52.3,31.0,-40.6,79,51,3,29.77,29.50,8,8,8,0.00
2013-9-20,65.7,57.0,32.0,57.5,38.3,-47.5,82,61,2,29.50,29.35,8,8,8,1.06
2013-9-21,67.3,54.2,32.0,54.3,37.6,-58.7,84,66,1,29.50,29.41,8,8,8,0.16
2013-9-22,63.1,52.6,32.0,55.6,32.1,-47.5,85,63,2,29.41,29.18,8,8,8,1.57
2013-9-23,63.9,56.6,51.3,50.4,44.6,36.7,82,67,42,29.71,29.50,8,8,8,1.73
2013-9-24,59.4,52.2,32.0,50.2,41.6,-40.6,82,72,3,29.71,29.59,8,8,8,0.71
2013-9-25,61.3,48.8,32.0,48.8,32.1,-47.5,85,65,2,29.74,29.59,9,8,9,0.00
2013-9-26,63.5,48.0,32.0,46.0,37.1,-47.5,85,73,2,29.85,29.68,8,8,8,0.00
2013-9-27,62.1,54.1,32.0,52.4,43.1,-47.5,83,73,2,29.83,29.53,8,8,8,0.51
2013-9-28,58.1,52.2,32.0,52.6,39.2,-58.7,82,72,1,29.53,29.03,9,8,9,1.14
2013-9-29,55.6,50.9,32.0,49.6,39.3,-40.6,82,69,3,29.56,29.00,14,8,14,1.50
2013-9-30,58.1,53.5,49.6,46.9,41.9,37.3,76,65,54,29.59,29.06,8,8,8,0.04
2013-10-1,58.1,47.3,32.0,50.6,31.7,-40.6,83,68,3,29.83,29.56,8,8,8,0.67
2013-10-2,60.1,51.6,32.0,46.7,41.1,-47.5,83,71,2,29.91,29.74,8,8,8,0.79
2013-10-3,60.6,47.4,38.1,44.1,39.6,34.3,86,76,49,30.15,29.91,8,8,8,0.00
2013-10-4,62.2,49.8,32.0,47.7,38.9,-58.7,85,70,1,30.18,30.06,8,8,0,0.00
2013-10-5,67.6,53.3,30.9,50.1,33.1,-58.7,80,58,1,30.09,29.83,8,8,8,0.00
2013-10-6,67.1,53.1,30.9,54.2,42.3,-35.6,84,71,4,29.83,29.53,8,8,8,0.00
2013-10-7,58.8,53.6,32.0,49.8,40.1,-58.7,82,69,1,29.74,29.56,8,8,8,0.35
2013-10-8,58.6,50.9,32.0,44.6,37.9,27.1,83,63,40,29.80,29.68,8,8,8,0.00
2013-10-9,54.3,45.6,32.0,45.3,32.4,-35.6,85,71,4,29.80,29.68,8,8,0,0.00
2013-10-10,57.4,51.9,44.1,48.3,45.3,27.4,83,78,68,29.80,29.56,9,8,9,0.00
2013-10-11,58.3,49.7,32.0,50.4,41.0,-40.6,84,75,3,29.85,29.77,8,8,8,0.00
2013-10-12,59.7,49.3,32.0,46.1,36.9,-40.6,83,69,3,29.94,29.80,8,8,8,0.04
2013-10-13,59.5,46.7,32.0,48.2,28.8,-47.5,86,64,2,30.06,29.94,8,8,8,0.00
2013-10-14,58.1,43.7,32.0,48.8,34.0,-58.7,86,77,1,30.09,30.06,8,8,0,0.00
2013-10-15,56.3,46.8,39.0,50.4,41.4,34.9,86,81,70,30.06,29.88,8,8,8,0.00
2013-10-16,57.2,45.7,37.9,51.1,40.4,34.1,86,82,65,29.91,29.83,8,8,8,0.00
2013-10-17,56.5,45.8,32.0,48.3,37.6,-58.7,85,76,1,30.00,29.88,8,8,8,0.00
2013-10-18,60.1,43.2,32.0,51.6,14.5,-58.7,85,53,1,29.94,29.56,8,8,8,0.00
2013-10-19,56.7,48.8,32.0,47.4,40.4,-47.5,84,76,2,29.91,29.83,8,8,8,0.00
2013-10-20,56.1,49.2,42.3,45.3,42.2,36.8,83,77,64,29.91,29.83,8,8,8,0.00
2013-10-21,63.5,47.0,32.0,56.0,35.0,-58.7,84,74,1,29.83,29.80,8,8,0,0.00
2013-10-22,64.4,48.8,33.1,58.1,42.3,8.4,86,79,35,29.80,29.74,8,8,8,0.00
2013-10-23,55.9,43.3,32.0,50.5,22.5,-58.7,86,66,1,29.74,29.68,8,8,8,0.00
2013-10-24,57.9,50.7,32.0,46.6,36.8,-40.6,82,67,3,29.83,29.74,8,8,8,0.00
2013-10-25,60.6,49.5,32.0,50.0,42.4,27.4,83,77,52,30.03,29.56,9,8,9,0.04
2013-10-26,56.3,47.2,32.0,44.9,35.0,-40.6,83,68,4,30.06,30.00,10,8,10,0.00
2013-10-27,54.3,53.7,53.1,31.1,30.5,29.9,43,41,39,29.71,29.68,8,8,8,0.00
2013-10-28,91.9,49.0,32.0,90.6,14.4,-47.5,96,38,2,29.71,29.71,8,8,8,0.00
2013-10-29,54.1,44.8,35.8,37.7,32.2,25.7,84,64,36,29.74,29.68,8,8,8,0.00
2013-10-30,56.7,47.7,32.0,47.0,36.8,-40.6,85,73,3,29.80,29.71,8,8,8,0.24
2013-10-31,58.1,51.3,32.0,50.4,37.5,-47.5,82,72,2,29.97,29.74,8,8,8,0.08
2013-11-1,55.8,52.7,33.1,49.0,46.3,7.7,82,79,34,29.97,29.56,8,8,0,0.39
2013-11-2,52.5,49.9,48.4,47.2,40.0,36.0,82,69,62,29.62,29.12,8,8,8,0.39
2013-11-3,50.2,42.9,32.0,36.0,23.4,-47.5,83,56,2,29.83,29.62,9,8,9,0.00
2013-11-4,50.5,41.7,32.0,40.3,34.9,28.0,85,77,51,29.85,29.65,8,8,8,0.00
2013-11-5,53.1,47.2,32.0,44.8,39.5,-40.6,84,77,3,29.94,29.65,8,8,8,0.12
2013-11-6,52.9,44.9,32.0,46.8,33.8,-40.6,85,74,3,29.97,29.62,8,8,8,0.08
2013-11-7,54.1,49.9,31.6,49.1,44.2,-58.7,83,81,1,29.71,29.26,9,8,9,1.14
2013-11-8,55.0,47.9,32.0,45.7,37.3,-35.6,82,72,4,29.83,29.71,8,8,8,0.12
2013-11-9,47.3,44.8,43.3,41.2,39.8,38.5,83,82,82,29.83,29.77,8,8,0,0.00
2013-11-13,50.4,50.4,50.4,44.1,44.1,27.4,79,79,79,30.09,29.56,9,8,9,0.00
2013-11-14,50.4,50.4,50.4,44.1,44.1,27.4,79,79,79,30.09,29.56,9,8,9,0.00
2013-11-17,52.2,46.5,32.0,44.1,28.1,-58.7,81,65,1,29.62,29.53,9,8,9,0.16
2013-11-18,49.6,46.9,32.0,43.7,39.4,-58.7,82,79,1,29.62,29.24,10,8,10,0.75
2013-11-19,45.9,41.8,31.8,40.4,24.5,14.4,81,53,29,29.80,29.32,15,8,15,0.00
2013-11-20,44.4,30.0,27.5,32.4,21.7,16.5,82,72,45,30.06,29.56,9,8,9,0.00
2013-11-22,48.6,37.8,13.5,30.6,15.8,-40.6,83,49,3,30.30,29.56,9,8,9,0.00
2013-11-23,53.4,41.9,32.0,38.4,25.2,-40.6,77,56,3,30.06,29.56,9,8,9,0.00
2013-11-24,50.2,38.2,30.9,42.5,30.7,26.9,86,76,51,29.88,29.56,9,8,9,0.00
2013-11-25,47.5,37.6,32.0,41.9,24.7,-40.6,86,72,3,29.97,29.85,8,8,8,0.00
2013-11-26,50.0,41.8,32.9,44.2,35.5,27.4,86,79,51,29.91,29.56,9,8,9,0.00
2013-11-27,54.5,47.3,32.0,46.2,40.1,-40.6,84,78,3,29.77,29.62,8,8,8,0.12
2013-11-28,53.8,44.7,36.1,47.1,39.0,27.4,86,81,72,29.88,29.56,9,8,9,0.00
2013-11-29,48.4,47.8,47.3,42.5,42.2,27.4,82,81,79,29.91,29.56,9,8,9,0.04
2013-12-2,45.9,40.2,31.5,30.8,26.9,23.9,82,60,45,29.80,29.53,10,8,10,0.04
2013-12-3,44.4,36.2,29.5,27.4,17.3,-40.6,71,49,3,30.00,29.56,9,8,9,0.00
2013-12-4,44.4,33.0,29.3,27.4,12.1,-40.6,73,44,3,30.03,29.56,9,8,9,0.00
2013-12-5,44.4,30.2,30.2,10.4,10.4,10.4,43,43,43,30.00,29.56,9,8,9,0.00
2013-12-6,44.4,30.2,30.2,10.4,10.4,10.4,43,43,43,30.00,29.56,9,8,9,0.00
2013-12-7,44.4,30.9,30.2,27.4,11.2,10.4,51,43,43,30.00,29.56,9,8,9,0.00
2013-12-8,44.4,31.1,30.2,27.4,11.5,10.4,51,43,43,30.00,29.56,9,8,9,0.00
2013-12-9,44.4,30.2,30.2,10.4,10.4,10.4,43,43,43,30.00,29.56,9,8,9,0.00
2013-12-10,44.4,30.4,30.2,27.4,10.6,10.4,51,43,43,30.00,29.56,9,8,9,0.00
2013-12-11,44.6,37.3,30.2,34.7,27.7,10.4,80,69,43,30.00,29.56,9,8,9,0.00
2013-12-12,46.4,35.7,32.0,41.5,25.0,-35.6,85,75,4,29.80,29.56,9,8,9,0.16
2013-12-16,49.5,41.1,13.5,42.2,33.1,1.4,83,73,51,30.15,29.56,9,8,9,0.16
2013-12-17,104.4,46.4,32.0,95.7,40.5,-47.5,84,82,2,29.94,29.56,9,8,9,0.20
2013-12-18,44.4,40.0,32.0,39.4,28.2,-35.6,83,67,4,29.91,29.56,10,8,10,0.00
2013-12-19,79.7,34.0,29.1,74.1,18.9,-35.6,83,70,4,30.03,29.56,9,8,9,0.00
2013-12-28,104.4,55.9,41.0,93.1,47.6,27.4,79,74,51,30.21,30.12,8,8,0,0.00
2013-12-29,104.4,44.3,32.0,93.1,34.4,-40.6,82,74,3,30.15,29.56,9,8,9,0.00
2013-12-30,104.4,48.6,41.4,94.4,42.6,36.3,82,80,73,30.00,29.83,8,8,0,0.00
2013-12-31,104.4,45.4,32.0,94.8,16.9,-58.7,83,58,1,30.09,29.56,9,8,9,0.04
2014-1-1,128.5,44.8,41.7,43.0,39.4,27.4,83,81,80,30.06,29.56,9,8,9,0.04
2014-1-2,48.4,44.8,32.0,43.5,32.7,-40.6,85,68,3,29.80,29.56,10,8,11,0.98